timestamp,wind_dir_avg,wind_spd_avg,wind_spd_max_dir,wind_spd_gust,battery_voltage,lat,long
2021-05-02 00:04:01+00:00,215.0,12.83,215.0,14.2,12.57,47.59359,-54.27349
2021-05-02 00:14:01+00:00,216.0,12.7,219.0,14.72,12.57,47.59359,-54.27349
2021-05-02 00:24:01+00:00,216.0,12.14,223.0,15.08,12.57,47.59359,-54.27349
2021-05-02 00:34:01+00:00,215.0,11.88,212.0,13.25,12.57,47.59359,-54.27349
2021-05-02 00:44:01+00:00,217.0,11.59,215.0,12.97,12.57,47.59359,-54.27349
2021-05-02 00:54:01+00:00,215.0,11.86,211.0,14.33,12.57,47.59359,-54.27349
2021-05-02 01:04:01+00:00,217.0,10.71,216.0,12.66,12.57,47.59359,-54.27349
2021-05-02 01:14:01+00:00,215.0,11.86,215.0,13.79,12.49,47.59359,-54.27349
2021-05-02 01:24:01+00:00,217.0,9.33,218.0,10.19,12.49,47.59359,-54.27349
2021-05-02 01:34:01+00:00,216.0,10.98,216.0,11.99,12.49,47.59359,-54.27349
2021-05-02 01:44:01+00:00,216.0,9.95,217.0,10.87,12.49,47.59359,-54.27349
2021-05-02 01:54:01+00:00,214.0,9.83,215.0,11.36,12.49,47.59359,-54.27349
2021-05-02 02:04:01+00:00,221.0,7.82,228.0,9.03,12.49,47.59359,-54.27349
2021-05-02 02:14:00+00:00,217.0,9.63,217.0,11.01,12.49,47.59359,-54.27349
2021-05-02 02:24:00+00:00,212.0,9.17,210.0,10.16,12.49,47.59359,-54.27349
2021-05-02 02:34:00+00:00,212.0,9.51,217.0,10.93,12.49,47.59359,-54.27349
2021-05-02 02:44:00+00:00,207.0,9.81,208.0,11.7,12.49,47.59359,-54.27349
2021-05-02 02:54:00+00:00,228.0,8.17,225.0,9.38,12.49,47.59359,-54.27349
2021-05-02 03:04:00+00:00,221.0,8.68,221.0,9.69,12.49,47.59359,-54.27349
2021-05-02 03:14:00+00:00,222.0,8.72,223.0,9.95,12.49,47.59359,-54.27349
2021-05-02 03:24:00+00:00,224.0,8.35,216.0,9.52,12.49,47.59359,-54.27349
2021-05-02 03:34:00+00:00,230.0,8.11,228.0,9.38,12.49,47.59359,-54.27349
2021-05-02 03:44:00+00:00,224.0,8.82,222.0,10.37,12.49,47.59359,-54.27349
2021-05-02 03:54:00+00:00,226.0,8.44,230.0,9.42,12.49,47.59359,-54.27349
2021-05-02 04:04:00+00:00,228.0,7.59,228.0,9.09,12.49,47.59359,-54.27349
2021-05-02 04:14:00+00:00,230.0,5.87,233.0,7.27,12.49,47.59359,-54.27349
2021-05-02 04:24:00+00:00,224.0,7.09,230.0,8.45,12.49,47.59359,-54.27349
2021-05-02 04:34:00+00:00,231.0,7.22,233.0,8.35,12.49,47.59359,-54.27349
2021-05-02 04:44:00+00:00,228.0,6.41,237.0,7.2,12.49,47.59359,-54.27349
2021-05-02 04:54:00+00:00,237.0,5.99,242.0,6.98,12.49,47.59359,-54.27349
2021-05-02 05:04:00+00:00,231.0,6.1,232.0,6.9,12.49,47.59359,-54.27349
2021-05-02 05:14:01+00:00,228.0,6.62,231.0,7.91,12.41,47.59359,-54.27349
2021-05-02 05:24:01+00:00,239.0,6.02,247.0,7.25,12.41,47.59359,-54.27349
2021-05-02 05:34:01+00:00,250.0,6.7,249.0,7.42,12.41,47.59359,-54.27349
2021-05-02 05:44:01+00:00,251.0,6.83,255.0,7.93,12.41,47.59359,-54.27349
2021-05-02 05:54:01+00:00,243.0,6.25,243.0,6.85,12.41,47.59359,-54.27349
2021-05-02 06:04:01+00:00,249.0,5.65,252.0,6.42,12.41,47.59359,-54.27349
2021-05-02 06:14:00+00:00,256.0,4.98,252.0,6.02,12.41,47.59359,-54.27349
2021-05-02 06:24:00+00:00,277.0,7.16,272.0,10.31,12.41,47.59359,-54.27349
2021-05-02 06:34:00+00:00,275.0,8.08,277.0,11.57,12.41,47.59359,-54.27349
2021-05-02 06:44:00+00:00,276.0,6.88,272.0,8.22,12.41,47.59359,-54.27349
2021-05-02 06:54:00+00:00,269.0,6.39,270.0,7.37,12.41,47.59359,-54.27349
2021-05-02 07:04:00+00:00,271.0,8.21,272.0,12.6,12.41,47.59359,-54.27349
2021-05-02 07:14:00+00:00,271.0,8.83,271.0,11.49,12.41,47.59359,-54.27349
2021-05-02 07:24:00+00:00,275.0,6.87,289.0,8.55,12.41,47.59359,-54.27349
2021-05-02 07:34:00+00:00,279.0,7.78,275.0,9.06,12.41,47.59359,-54.27349
2021-05-02 07:44:00+00:00,273.0,8.23,272.0,9.93,12.41,47.59359,-54.27349
2021-05-02 07:54:00+00:00,269.0,7.2,277.0,8.25,12.41,47.59359,-54.27349
2021-05-02 08:04:00+00:00,270.0,8.77,270.0,11.04,12.41,47.59359,-54.27349
2021-05-02 08:14:01+00:00,267.0,9.45,262.0,11.48,12.33,47.59359,-54.27349
2021-05-02 08:24:01+00:00,262.0,8.17,264.0,9.9,12.33,47.59359,-54.27349
2021-05-02 08:34:01+00:00,252.0,8.71,255.0,9.91,12.33,47.59359,-54.27349
2021-05-02 08:44:01+00:00,250.0,8.18,249.0,9.16,12.33,47.59359,-54.27349
2021-05-02 08:54:01+00:00,249.0,7.2,250.0,7.9,12.33,47.59359,-54.27349
2021-05-02 09:04:01+00:00,252.0,8.75,251.0,10.77,12.33,47.59359,-54.27349
2021-05-02 09:14:01+00:00,257.0,9.3,260.0,10.93,12.41,47.59359,-54.27349
2021-05-02 09:24:01+00:00,254.0,10.58,260.0,12.08,12.41,47.59359,-54.27349
2021-05-02 09:34:01+00:00,257.0,9.69,250.0,11.07,12.41,47.59359,-54.27349
2021-05-02 09:44:01+00:00,262.0,10.79,261.0,13.22,12.41,47.59359,-54.27349
2021-05-02 09:54:01+00:00,258.0,7.77,254.0,8.89,12.41,47.59359,-54.27349
2021-05-02 10:04:01+00:00,240.0,7.82,238.0,8.94,12.41,47.59359,-54.27349
2021-05-02 10:14:01+00:00,244.0,7.66,240.0,8.47,13.37,47.59359,-54.27349
2021-05-02 10:24:01+00:00,256.0,11.25,253.0,13.1,13.37,47.59359,-54.27349
2021-05-02 10:34:01+00:00,251.0,8.68,251.0,9.61,13.37,47.59359,-54.27349
2021-05-02 10:44:01+00:00,246.0,11.45,251.0,12.7,13.37,47.59359,-54.27349
2021-05-02 10:54:01+00:00,240.0,10.06,238.0,11.42,13.37,47.59359,-54.27349
2021-05-02 11:04:01+00:00,252.0,10.31,253.0,11.9,13.37,47.59359,-54.27349
2021-05-02 11:14:01+00:00,262.0,12.03,266.0,13.72,13.68,47.59359,-54.27349
2021-05-02 11:24:01+00:00,265.0,12.89,267.0,15.39,13.68,47.59359,-54.27349
2021-05-02 11:34:01+00:00,261.0,12.65,256.0,16.05,13.68,47.59359,-54.27349
2021-05-02 11:44:01+00:00,260.0,15.5,265.0,18.38,13.68,47.59359,-54.27349
2021-05-02 11:54:01+00:00,264.0,13.91,263.0,15.74,13.68,47.59359,-54.27349
2021-05-02 12:04:01+00:00,259.0,14.06,253.0,18.27,13.68,47.59359,-54.27349
2021-05-02 12:14:01+00:00,276.0,16.3,277.0,18.75,14.24,47.59359,-54.27349
2021-05-02 12:24:01+00:00,270.0,16.64,271.0,21.14,14.24,47.59359,-54.27349
2021-05-02 12:34:01+00:00,273.0,15.74,281.0,18.68,14.24,47.59359,-54.27349
2021-05-02 12:44:01+00:00,271.0,14.14,278.0,16.4,14.24,47.59359,-54.27349
2021-05-02 12:54:01+00:00,257.0,15.39,255.0,18.92,14.24,47.59359,-54.27349
2021-05-02 13:04:01+00:00,255.0,15.01,253.0,16.68,14.24,47.59359,-54.27349
2021-05-02 13:14:01+00:00,260.0,13.79,265.0,16.73,13.68,47.59359,-54.27349
2021-05-02 13:24:01+00:00,263.0,14.21,266.0,15.66,13.68,47.59359,-54.27349
2021-05-02 13:34:01+00:00,256.0,14.93,257.0,17.22,13.68,47.59359,-54.27349
2021-05-02 13:44:01+00:00,255.0,12.55,260.0,15.32,13.68,47.59359,-54.27349
2021-05-02 13:54:01+00:00,258.0,15.9,256.0,18.79,13.68,47.59359,-54.27349
2021-05-02 14:04:01+00:00,252.0,16.57,254.0,18.8,13.68,47.59359,-54.27349
2021-05-02 14:14:01+00:00,249.0,15.32,253.0,17.36,13.92,47.59359,-54.27349
2021-05-02 14:24:01+00:00,257.0,15.46,258.0,17.92,13.92,47.59359,-54.27349
2021-05-02 14:34:01+00:00,254.0,13.94,260.0,17.44,13.92,47.59359,-54.27349
2021-05-02 14:44:01+00:00,254.0,12.66,245.0,14.34,13.92,47.59359,-54.27349
2021-05-02 14:54:01+00:00,254.0,13.97,254.0,16.18,13.92,47.59359,-54.27349
2021-05-02 15:04:01+00:00,262.0,14.93,258.0,16.3,13.92,47.59359,-54.27349
2021-05-02 15:14:01+00:00,265.0,15.8,267.0,18.6,14.0,47.59359,-54.27349
2021-05-02 15:24:01+00:00,252.0,15.01,251.0,18.25,14.0,47.59359,-54.27349
2021-05-02 15:34:01+00:00,258.0,12.51,263.0,14.96,14.0,47.59359,-54.27349
2021-05-02 15:44:01+00:00,254.0,13.78,256.0,16.2,14.0,47.59359,-54.27349
2021-05-02 15:54:01+00:00,251.0,15.5,254.0,17.83,14.0,47.59359,-54.27349
2021-05-02 16:04:01+00:00,257.0,14.53,255.0,17.14,14.0,47.59359,-54.27349
2021-05-02 16:14:01+00:00,252.0,15.13,248.0,17.01,13.76,47.59359,-54.27349
2021-05-02 16:24:01+00:00,258.0,13.29,256.0,16.35,13.76,47.59359,-54.27349
2021-05-02 16:34:01+00:00,254.0,14.15,256.0,15.99,13.76,47.59359,-54.27349
2021-05-02 16:44:01+00:00,251.0,15.9,254.0,18.16,13.76,47.59359,-54.27349
2021-05-02 16:54:01+00:00,259.0,15.18,256.0,17.13,13.76,47.59359,-54.27349
2021-05-02 17:04:01+00:00,246.0,14.27,249.0,16.51,13.76,47.59359,-54.27349
2021-05-02 17:14:01+00:00,251.0,13.02,251.0,15.76,14.32,47.59359,-54.27349
2021-05-02 17:24:01+00:00,249.0,13.97,255.0,15.48,14.32,47.59359,-54.27349
2021-05-02 17:34:01+00:00,247.0,12.67,257.0,16.09,14.32,47.59359,-54.27349
2021-05-02 17:44:01+00:00,249.0,12.31,248.0,13.99,14.32,47.59359,-54.27349
2021-05-02 17:54:01+00:00,254.0,13.77,255.0,15.38,14.32,47.59359,-54.27349
2021-05-02 18:04:01+00:00,257.0,13.07,256.0,15.15,14.32,47.59359,-54.27349
2021-05-02 18:14:01+00:00,256.0,10.75,260.0,12.6,13.84,47.59359,-54.27349
2021-05-02 18:24:01+00:00,254.0,11.6,250.0,13.43,13.84,47.59359,-54.27349
2021-05-02 18:34:01+00:00,252.0,14.37,251.0,16.3,13.84,47.59359,-54.27349
2021-05-02 18:44:01+00:00,253.0,15.06,263.0,21.56,13.84,47.59359,-54.27349
2021-05-02 18:54:01+00:00,251.0,15.46,259.0,19.31,13.84,47.59359,-54.27349
2021-05-02 19:04:01+00:00,254.0,15.66,258.0,17.55,13.84,47.59359,-54.27349
2021-05-02 19:14:01+00:00,253.0,13.0,258.0,15.68,13.84,47.59359,-54.27349
2021-05-02 19:24:01+00:00,256.0,16.77,257.0,22.3,13.84,47.59359,-54.27349
2021-05-02 19:34:01+00:00,253.0,14.38,248.0,16.2,13.84,47.59359,-54.27349
2021-05-02 19:44:01+00:00,250.0,14.13,256.0,17.31,13.84,47.59359,-54.27349
2021-05-02 19:54:01+00:00,253.0,13.65,252.0,16.37,13.84,47.59359,-54.27349
2021-05-02 20:04:01+00:00,255.0,13.57,248.0,16.08,13.84,47.59359,-54.27349
2021-05-02 20:14:01+00:00,252.0,13.6,248.0,15.72,13.92,47.59359,-54.27349
2021-05-02 20:24:01+00:00,250.0,16.89,254.0,22.76,13.92,47.59359,-54.27349
2021-05-02 20:34:01+00:00,254.0,17.64,257.0,22.32,13.92,47.59359,-54.27349
2021-05-02 20:44:01+00:00,257.0,14.25,258.0,16.25,13.92,47.59359,-54.27349
2021-05-02 20:54:01+00:00,255.0,16.93,261.0,21.99,13.92,47.59359,-54.27349
2021-05-02 21:04:01+00:00,253.0,13.69,253.0,15.44,13.92,47.59359,-54.27349
2021-05-02 21:14:01+00:00,255.0,13.54,250.0,16.05,13.84,47.59359,-54.27349
2021-05-02 21:24:01+00:00,250.0,13.88,248.0,15.46,13.84,47.59359,-54.27349
2021-05-02 21:34:01+00:00,250.0,14.49,251.0,16.36,13.84,47.59359,-54.27349
2021-05-02 21:44:01+00:00,252.0,13.59,253.0,15.21,13.84,47.59359,-54.27349
2021-05-02 21:54:01+00:00,255.0,14.02,254.0,15.28,13.84,47.59359,-54.27349
2021-05-02 22:04:01+00:00,249.0,12.9,251.0,15.26,13.84,47.59359,-54.27349
2021-05-02 22:14:01+00:00,245.0,11.84,249.0,15.2,13.6,47.59359,-54.27349
2021-05-02 22:24:01+00:00,212.0,9.1,208.0,9.99,13.6,47.59359,-54.27349
2021-05-02 22:34:01+00:00,206.0,9.65,202.0,10.96,13.6,47.59359,-54.27349
2021-05-02 22:44:01+00:00,205.0,10.42,210.0,12.08,13.6,47.59359,-54.27349
2021-05-02 22:54:01+00:00,210.0,9.68,210.0,10.75,13.6,47.59359,-54.27349
2021-05-02 23:04:01+00:00,206.0,8.53,205.0,9.38,13.6,47.59359,-54.27349
2021-05-02 23:14:01+00:00,209.0,10.58,207.0,11.71,13.05,47.59359,-54.27349
2021-05-02 23:24:01+00:00,214.0,10.11,217.0,11.35,13.05,47.59359,-54.27349
2021-05-02 23:34:01+00:00,212.0,9.89,216.0,10.72,13.05,47.59359,-54.27349
2021-05-02 23:44:01+00:00,215.0,8.12,218.0,9.66,13.05,47.59359,-54.27349
2021-05-02 23:54:01+00:00,217.0,7.82,217.0,8.65,13.05,47.59359,-54.27349
